Location: McFarlands Corners
(41.4117°N, 81.3382°W)
Time: 12:00:50
(UTC+00:00)

Transit 4A - Pass Details

Date: 20 February 2026
Orbit: 863 x 978 km, 66.8° (Epoch: 17 March)

Event Time Altitude Azimuth Distance (km) Brightness Sun altitude
Rises 07:34:49 0° 180° (S) 3,436 - -50.3°
Reaches altitude 10° 07:37:28 10° 171° (S) 2,511 - -49.9°
Maximum altitude 07:42:35 33° 109° (ESE) 1,442 - -49.2°
Exits shadow 07:47:39 11° 48° (NE) 2,519 10.7 -48.5°
Drops below altitude 10° 07:47:50 10° 47° (NE) 2,581 10.7 -48.4°
Sets 07:50:36 0° 39° (NE) 3,545 11.6 -48.0°
